Wind_Speed
7 6 5 5 5 4 5 5 4 6 5 7 8 7 8 7 8 9 9 9 10 10 9 9 9 10 10 10 10 10 11 10 11 11 11 10 10 10 9 9 8 8 8 7
7 7 7 7 8 6 5 7 7 8 7 7 8 9 8 8 9 10 10 10 10 11 10 10 10 10 11 11 11 11 11 11 11 12 11 11 11 10 10 10 9 9 9 9
8 7 9 8 8 7 8 9 9 9 8 8 10 11 9 10 9 10 11 11 11 12 12 11 11 11 11 11 11 11 11 12 12 12 12 12 11 11 11 10 10 10 10 10
10 10 10 9 9 9 10 10 9 8 9 9 10 13 13 11 11 10 11 12 12 13 13 13 12 12 12 12 12 12 13 13 13 13 14 13 12 12 12 11 11 11 10 10
11 12 11 11 10 10 11 11 10 8 11 13 11 12 13 13 13 12 13 14 14 14 14 14 13 13 12 12 12 12 13 14 14 14 14 14 13 13 13 13 12 11 11 11
13 14 14 12 12 12 11 11 10 10 12 13 12 13 14 14 13 14 16 16 16 16 16 15 14 14 14 14 14 14 14 14 14 14 14 14 14 15 15 14 14 12 12 13
14 14 14 14 13 12 12 12 13 13 13 12 12 13 15 16 16 16 17 17 17 18 17 16 16 16 16 15 15 16 15 15 15 15 15 15 16 15 15 14 13 13 13 13
15 15 15 15 15 14 14 13 14 16 14 14 14 15 15 17 17 18 18 18 18 18 17 17 17 17 17 16 16 16 16 16 16 16 16 16 16 16 16 15 14 14 14 14
17 16 16 16 16 17 16 15 15 17 17 17 14 15 17 18 18 17 19 20 20 20 20 19 18 18 17 17 17 17 17 18 18 18 18 17 17 17 17 16 16 15 15 16
19 17 15 16 16 17 18 16 16 16 17 18 16 16 20 19 17 19 21 21 22 21 21 20 20 19 19 19 18 19 18 18 18 18 18 18 18 18 18 17 17 17 17 17
20 20 18 17 18 18 18 17 17 18 18 18 17 18 19 18 18 18 21 22 22 22 21 21 21 20 20 20 20 19 19 19 19 19 19 18 18 18 19 19 18 18 19 19
21 21 22 21 19 20 21 20 19 20 20 18 18 19 18 19 20 19 21 22 22 22 22 22 21 21 21 22 22 22 21 21 21 21 21 20 19 20 20 20 20 20 20 20
23 23 23 20 20 22 22 21 21 21 20 19 18 19 20 22 23 22 21 23 24 23 23 23 23 24 23 22 22 23 23 22 22 22 21 21 20 20 20 20 20 20 20 20
26 25 23 22 22 21 21 20 20 21 21 21 21 22 23 23 25 24 23 23 24 24 24 24 24 23 23 23 23 23 23 23 22 22 21 21 21 21 21 21 20 20 20 20
27 26 25 24 24 23 22 22 21 22 22 22 23 25 26 26 27 26 25 24 24 25 25 24 23 23 23 23 23 22 23 23 22 22 22 21 22 22 22 22 21 22 22 22
28 27 27 27 26 25 25 25 23 22 23 23 25 26 27 28 27 27 26 25 26 25 25 25 24 24 24 23 23 23 23 23 23 23 23 23 22 22 22 22 22 22 23 23
28 29 29 28 26 27 27 26 24 24 26 25 26 26 27 28 29 28 27 26 26 27 26 26 26 25 24 24 23 23 24 23 23 23 23 24 24 24 23 23 24 24 23 24
30 30 30 29 28 29 28 27 27 28 28 26 27 27 28 29 29 29 29 27 27 27 26 26 26 25 24 24 24 23 24 24 23 24 24 24 24 24 24 24 25 25 25 25
30 31 31 30 30 31 30 29 28 29 30 30 29 28 28 29 28 29 29 28 28 27 27 27 27 25 25 25 25 25 24 24 24 25 24 24 25 25 25 26 26 26 26 27
31 32 32 31 31 31 31 29 28 29 31 30 29 30 30 29 28 29 30 30 28 28 28 28 28 27 26 26 26 26 26 26 26 26 25 25 26 26 26 27 27 27 27 27
31 31 32 31 31 32 31 28 28 30 31 30 30 30 28 30 31 30 30 30 29 29 29 28 28 27 27 27 26 27 27 27 27 27 28 28 28 27 27 28 28 28 27 27
29 28 30 31 32 34 31 28 27 30 31 32 32 31 30 31 32 31 30 30 30 29 29 29 29 28 28 28 27 28 28 28 28 28 29 29 29 29 28 28 28 27 27 27
29 30 29 31 32 31 30 30 30 31 32 33 33 32 31 31 32 32 31 31 31 31 30 30 30 29 29 29 29 28 28 29 29 29 29 29 29 29 29 29 29 28 28 28
31 30 31 32 32 31 31 31 30 30 32 33 34 34 32 32 33 33 33 32 32 31 29 30 30 30 30 30 30 29 29 29 29 29 29 29 29 29 29 29 28 28 28 28
32 32 33 34 34 34 34 34 33 32 32 32 33 34 34 34 34 34 32 30 30 30 29 30 30 30 30 30 31 31 31 31 31 30 30 30 29 29 29 29 29 28 28 28
32 32 32 32 33 35 34 34 34 34 34 34 34 34 35 35 34 34 34 33 31 31 30 30 31 31 31 31 31 32 32 32 32 31 31 30 29 29 29 29 29 28 28 28
Wind_Direction
211 217 235 255 258 235 266 279 279 279 295 304 308 313 316 327 339 337 336 339 344 346 346 342 341 340 340 339 335 333 335 333 332 329 323 318 320 322 321 315 312 313 310 310
223 226 231 238 244 237 251 269 272 277 285 295 294 294 298 301 321 325 327 332 340 340 342 345 342 339 337 336 331 326 327 328 326 325 325 319 316 317 316 314 311 309 308 308
227 233 247 243 240 249 254 262 264 267 276 284 289 296 290 299 310 317 322 325 330 334 334 334 331 329 330 330 328 324 323 323 323 322 320 317 315 314 312 308 307 303 300 300
223 230 248 248 249 253 260 259 260 266 273 279 282 286 289 297 298 300 317 322 322 326 329 328 325 322 323 324 324 322 320 320 319 319 319 315 313 309 307 303 301 301 300 297
231 241 242 248 248 253 259 260 257 260 267 270 273 278 287 291 293 297 311 314 314 318 321 323 323 317 317 318 318 317 319 317 317 316 316 313 309 307 305 301 299 299 299 301
233 243 242 243 247 252 259 264 262 265 266 266 271 272 277 282 287 294 303 308 309 313 315 316 318 314 313 313 313 313 315 315 314 315 313 311 309 307 305 301 297 297 300 301
240 245 252 250 251 256 260 267 274 272 271 274 272 266 271 275 280 287 291 297 304 308 310 313 311 310 310 310 310 308 310 310 310 310 309 309 308 307 305 300 296 298 300 301
253 251 251 247 248 252 258 262 270 273 272 270 271 272 274 276 278 280 285 292 296 300 303 307 307 310 308 307 308 305 305 306 306 307 307 306 306 305 303 299 296 295 295 297
243 246 248 251 249 250 254 253 261 269 270 272 271 273 274 276 275 281 287 292 296 300 304 303 303 305 307 304 304 304 302 302 302 303 304 304 303 304 300 296 295 293 294 295
246 246 239 253 255 256 254 254 259 265 269 272 272 273 273 278 280 288 289 289 290 295 298 298 299 300 303 302 302 302 301 302 302 301 302 301 300 301 300 296 294 291 290 291
245 247 243 242 249 252 255 253 251 261 264 272 277 274 273 280 280 284 287 288 287 289 293 295 295 297 301 302 301 302 301 301 301 300 298 298 299 299 298 297 294 291 289 290
247 249 249 246 247 250 248 251 256 261 264 268 274 276 277 284 283 279 282 286 289 292 293 293 293 297 299 300 300 301 302 299 298 298 297 297 297 298 299 296 294 293 291 289
246 246 251 253 249 248 249 250 253 257 263 264 268 275 279 284 286 285 286 289 289 291 290 290 292 295 295 295 296 299 300 299 297 296 297 297 297 298 298 296 293 293 292 290
242 243 245 249 252 251 251 254 254 257 260 262 262 265 269 274 281 284 288 289 288 287 286 289 290 291 292 293 293 294 296 297 296 295 296 295 294 295 296 295 294 291 290 289
243 246 247 249 252 254 250 248 253 257 258 259 262 266 267 271 279 283 283 284 286 285 284 286 287 289 291 293 294 293 294 296 295 293 293 292 293 294 294 293 294 292 290 288
249 249 248 251 253 254 256 250 249 253 256 257 259 263 266 270 274 279 282 284 283 283 285 289 289 291 290 291 292 292 293 293 294 292 292 292 291 292 293 292 293 292 290 289
250 252 251 252 252 251 253 254 255 255 255 259 262 263 266 270 273 277 280 282 282 283 285 288 289 289 289 289 288 289 290 291 292 292 291 292 291 291 292 292 292 291 291 290
251 253 252 254 253 252 255 255 255 254 254 256 260 261 262 268 272 274 277 279 281 283 285 287 288 288 288 287 286 287 288 289 290 291 290 290 291 292 292 293 292 291 291 292
247 251 251 251 252 254 255 252 252 256 256 255 260 262 265 266 270 272 273 275 278 281 284 286 288 288 287 286 286 286 285 287 289 289 289 289 291 292 293 293 293 292 292 291
247 249 250 250 251 253 254 255 255 259 262 262 263 266 267 266 267 269 272 275 279 281 283 284 285 286 286 284 285 285 285 285 287 288 289 290 291 292 293 293 293 293 292 290
249 249 249 249 250 253 254 253 254 255 258 261 262 265 265 266 268 272 276 277 278 280 281 282 283 284 285 284 284 284 286 286 286 287 288 289 290 290 291 292 293 293 292 291
251 252 253 252 252 254 256 251 253 258 261 261 261 263 264 266 270 273 276 277 278 277 278 280 281 281 283 284 285 285 285 286 286 287 287 288 288 288 289 290 291 291 290 291
247 249 252 254 256 257 261 258 255 257 259 261 262 263 265 268 271 273 276 277 277 278 277 278 280 281 282 284 285 285 286 287 287 287 288 288 288 288 288 289 290 290 290 290
249 248 250 253 256 256 259 261 260 259 259 260 263 265 267 269 271 272 276 277 276 277 277 277 279 280 281 282 283 284 285 287 288 288 289 289 288 288 288 288 290 290 290 289
247 249 252 253 256 255 256 258 259 260 260 262 263 265 268 269 271 273 276 277 277 278 279 278 278 279 281 281 282 283 284 285 287 288 290 291 291 290 290 290 290 290 290 290
248 249 250 253 256 257 257 256 258 260 262 264 265 266 268 270 272 272 273 276 277 277 279 280 279 278 279 280 281 281 283 284 285 286 288 289 290 291 291 290 289 288 289 289
Height
5902 5905 5906 5907 5908 5909 5911 5911 5911 5912 5911 5910 5909 5909 5907 5906 5905 5904 5903 5902 5900 5899 5898 5897 5895 5894 5893 5892 5891 5890 5888 5887 5886 5885 5884 5883 5882 5881 5879 5879 5878 5877 5877 5877
5903 5905 5906 5907 5908 5909 5910 5911 5911 5911 5910 5910 5909 5908 5907 5905 5905 5904 5902 5901 5900 5898 5897 5896 5895 5894 5893 5891 5890 5889 5888 5886 5885 5884 5882 5881 5880 5879 5878 5877 5877 5876 5876 5876
5902 5905 5904 5905 5906 5908 5909 5910 5910 5910 5910 5909 5908 5907 5905 5904 5904 5903 5901 5900 5899 5898 5897 5896 5894 5893 5892 5891 5889 5888 5886 5885 5883 5882 5881 5880 5879 5878 5877 5876 5875 5875 5874 5874
5901 5902 5903 5904 5905 5906 5908 5909 5908 5908 5908 5908 5908 5906 5904 5903 5902 5901 5901 5899 5898 5897 5896 5895 5893 5892 5891 5889 5888 5887 5885 5884 5882 5880 5879 5878 5877 5876 5875 5874 5873 5873 5872 5872
5899 5900 5901 5902 5904 5905 5906 5906 5906 5906 5906 5906 5906 5905 5903 5901 5899 5899 5899 5897 5897 5895 5894 5893 5892 5890 5889 5888 5886 5885 5884 5882 5880 5878 5877 5875 5874 5873 5873 5872 5871 5871 5870 5870
5897 5898 5899 5900 5901 5902 5903 5904 5904 5904 5903 5904 5904 5903 5901 5899 5898 5897 5897 5896 5894 5893 5892 5891 5890 5888 5887 5886 5884 5883 5882 5880 5878 5877 5875 5873 5872 5871 5870 5869 5869 5868 5868 5868
5894 5895 5896 5898 5899 5900 5901 5902 5902 5902 5901 5902 5902 5900 5900 5897 5896 5895 5894 5894 5893 5891 5890 5888 5887 5886 5884 5883 5882 5880 5879 5878 5876 5875 5873 5871 5870 5869 5867 5867 5866 5866 5866 5865
5892 5893 5894 5895 5896 5897 5899 5900 5901 5900 5899 5899 5898 5896 5896 5894 5893 5893 5891 5891 5890 5888 5885 5885 5884 5882 5881 5879 5879 5877 5876 5875 5873 5872 5871 5869 5868 5866 5865 5864 5863 5863 5863 5862
5888 5889 5890 5891 5893 5894 5895 5896 5898 5897 5896 5895 5895 5893 5891 5891 5890 5889 5888 5887 5886 5885 5884 5882 5881 5880 5879 5877 5876 5875 5873 5872 5870 5869 5868 5866 5865 5864 5862 5861 5860 5859 5859 5858
5883 5884 5887 5889 5890 5890 5891 5892 5894 5893 5892 5891 5891 5890 5888 5886 5885 5885 5885 5883 5882 5881 5880 5879 5877 5876 5875 5874 5873 5871 5870 5869 5867 5866 5864 5863 5862 5860 5859 5858 5857 5856 5855 5854
5879 5880 5882 5885 5885 5886 5887 5888 5888 5889 5888 5889 5888 5888 5883 5882 5881 5881 5881 5879 5879 5877 5876 5875 5874 5872 5871 5870 5869 5868 5866 5865 5863 5862 5861 5859 5858 5857 5855 5854 5853 5852 5851 5850
5875 5876 5876 5879 5881 5882 5883 5883 5885 5885 5884 5884 5884 5884 5880 5879 5878 5876 5876 5875 5874 5874 5873 5871 5869 5868 5867 5865 5864 5863 5862 5860 5859 5857 5856 5855 5853 5852 5851 5850 5848 5847 5846 5845
5870 5872 5873 5874 5877 5877 5877 5878 5880 5881 5881 5881 5881 5881 5876 5875 5874 5872 5871 5871 5870 5869 5868 5867 5865 5864 5863 5862 5860 5858 5857 5856 5854 5853 5851 5850 5848 5847 5846 5845 5843 5842 5841 5840
5863 5865 5868 5870 5870 5870 5871 5872 5874 5876 5876 5875 5875 5874 5872 5869 5869 5868 5867 5866 5865 5864 5863 5862 5861 5859 5858 5857 5855 5854 5852 5851 5849 5847 5846 5845 5843 5842 5841 5839 5838 5837 5835 5834
5856 5859 5860 5862 5863 5864 5865 5866 5868 5869 5869 5870 5869 5868 5866 5866 5864 5863 5862 5861 5859 5858 5857 5855 5854 5854 5853 5851 5850 5848 5847 5845 5844 5842 5841 5840 5838 5837 5835 5834 5832 5831 5830 5828
5849 5852 5853 5855 5856 5857 5858 5860 5860 5862 5863 5863 5863 5863 5861 5859 5858 5857 5856 5855 5854 5853 5851 5849 5848 5848 5847 5846 5844 5843 5842 5840 5838 5837 5835 5834 5832 5831 5830 5828 5827 5825 5824 5822
5843 5845 5846 5847 5850 5850 5851 5853 5854 5855 5855 5857 5857 5857 5855 5854 5853 5852 5850 5850 5848 5847 5846 5845 5843 5842 5840 5840 5839 5837 5836 5834 5833 5831 5830 5828 5827 5825 5824 5822 5821 5819 5818 5816
5835 5836 5838 5840 5842 5841 5846 5847 5847 5847 5848 5849 5849 5848 5847 5847 5846 5845 5844 5843 5842 5841 5840 5839 5837 5836 5835 5834 5832 5831 5830 5829 5827 5826 5824 5822 5821 5819 5818 5816 5814 5813 5811 5810
5827 5828 5830 5832 5833 5834 5837 5838 5839 5839 5839 5840 5840 5839 5838 5838 5839 5838 5837 5836 5836 5835 5834 5833 5831 5830 5829 5827 5826 5825 5824 5822 5821 5820 5818 5816 5815 5813 5811 5810 5808 5806 5804 5802
5818 5820 5822 5823 5825 5826 5829 5829 5831 5832 5830 5831 5831 5830 5831 5831 5831 5831 5829 5829 5829 5828 5827 5826 5824 5823 5822 5821 5819 5818 5817 5816 5815 5813 5812 5810 5808 5806 5805 5803 5801 5799 5797 5795
5809 5811 5812 5814 5816 5817 5820 5821 5823 5824 5823 5823 5822 5822 5822 5823 5823 5823 5822 5822 5822 5821 5820 5819 5817 5816 5815 5814 5813 5811 5810 5808 5807 5806 5804 5803 5801 5799 5797 5795 5793 5791 5789 5788
5802 5804 5805 5806 5807 5810 5811 5813 5815 5815 5815 5814 5814 5814 5814 5815 5815 5815 5814 5814 5814 5813 5812 5811 5810 5808 5807 5806 5805 5804 5803 5801 5799 5798 5797 5795 5793 5791 5789 5788 5786 5784 5782 5780
5794 5796 5797 5799 5801 5801 5802 5804 5804 5805 5806 5805 5805 5806 5807 5807 5806 5807 5806 5806 5805 5804 5804 5803 5802 5801 5800 5799 5798 5796 5795 5793 5792 5790 5789 5787 5785 5783 5781 5780 5778 5776 5774 5773
5785 5786 5788 5789 5790 5792 5793 5794 5795 5796 5796 5797 5797 5798 5798 5798 5798 5797 5797 5796 5796 5795 5795 5795 5794 5793 5792 5791 5789 5788 5787 5785 5783 5782 5780 5779 5777 5775 5773 5772 5770 5768 5767 5765
5776 5778 5779 5780 5782 5783 5784 5785 5786 5786 5787 5788 5789 5789 5789 5789 5789 5788 5787 5787 5787 5786 5785 5785 5785 5784 5783 5782 5781 5780 5778 5777 5776 5774 5772 5771 5769 5767 5765 5764 5762 5760 5759 5757
5767 5769 5770 5770 5772 5773 5774 5776 5777 5777 5778 5779 5780 5780 5780 5780 5779 5779 5779 5778 5778 5777 5777 5777 5776 5775 5775 5774 5772 5771 5770 5768 5767 5766 5764 5762 5761 5759 5757 5755 5754 5752 5751 5749